sat.trackr.live / text

‹ back to catalog

STARLINK-4088

NORAD 53155 · 2022-083Z

PAYLOAD ACTIVE UNKNOWN

§ Identity

Operator
Country
US
Launch date
2022-07-17
Launch site
AFETR
Launch vehicle
Mass (kg)
RCS (m²)

Purposes: comms

External: N2YO · Heavens-Above · Gunter

§ Orbital elements

Epoch: 2026-09-19T21:23:04.788096Z

Period
93.85 min
Inclination
53.1624°
Eccentricity
0.0001087
Mean motion
15.34395599 rev/d
Perigee alt
462.0 km
Apogee alt
463.5 km
Semi-major
6,840.9 km
B*
1.3550e-5
RAAN
6.2500°
Arg perigee
82.3548°
Mean anomaly
277.7578°
Rev number
23,139

§ Raw data

STARLINK-40881 53155U 22083Z   26262.89102764  .00000082  00000+0  13550-4 0  99962 53155  53.1624   6.2500 0001087  82.3548 277.7578 15.34395599231395

JSON: /api/v1/satellites/53155 · /tle

For live sub-satellite position, see the globe view (requires WebGL).

§ Visibility from observer

Set your observer location to see the next 7 days of passes ≥ 10°. The values pass through the URL so the page stays shareable.

No JS? Fill the form by hand. The geolocation button needs JavaScript.